RRR4238 LPLA-TXKF

Flight info

Callsign RRR4238
Flight time N/A
Altitude 32000
Route LM DCT 39N030W 39N040W 37N050W 35N060W DCT BALOO MOMOM1
Aircraft A400/H-SDE2E3FGHIJ4J5M1RWXY/LB1D1

Departure

Time 2026-04-26 06:24
Airport Lajes Airport (LPLA)

Arrival

Time N/A
Airport L.F. Wade International Airport (TXKF)
Time Latitude Longitude Altitude Speed Heading
2026-04-26 06:15 38.76969 -27.09566 199 ft 0 kts 260°
2026-04-26 06:21 38.76968 -27.09570 201 ft 3 kts 260°
2026-04-26 06:21 38.76964 -27.09606 188 ft 5 kts 260°
2026-04-26 06:21 38.76977 -27.09659 192 ft 8 kts 310°
2026-04-26 06:21 38.77028 -27.09715 190 ft 11 kts 319°
2026-04-26 06:22 38.77093 -27.09783 191 ft 14 kts 320°
2026-04-26 06:22 38.77178 -27.09872 191 ft 17 kts 321°
2026-04-26 06:22 38.77265 -27.09971 193 ft 14 kts 297°
2026-04-26 06:22 38.77222 -27.10073 193 ft 13 kts 235°
2026-04-26 06:23 38.77168 -27.10106 193 ft 7 kts 154°
2026-04-26 06:23 38.77126 -27.10062 191 ft 9 kts 139°
2026-04-26 06:23 38.77077 -27.10009 193 ft 11 kts 141°
2026-04-26 06:23 38.76866 -27.09790 197 ft 83 kts 141°
2026-04-26 06:24 38.76163 -27.09055 249 ft 165 kts 141°
2026-04-26 06:24 38.75229 -27.08096 981 ft 174 kts 141°
2026-04-26 06:24 38.74262 -27.07105 1790 ft 190 kts 141°
2026-04-26 06:24 38.73174 -27.05884 2193 ft 225 kts 134°
2026-04-26 06:25 38.72224 -27.04158 2772 ft 248 kts 111°
2026-04-26 06:25 38.72030 -27.01943 3699 ft 257 kts 82°
2026-04-26 06:25 38.72728 -26.99826 4715 ft 264 kts 53°
2026-04-26 06:25 38.74159 -26.98347 5723 ft 270 kts 25°
2026-04-26 06:26 38.75977 -26.97873 6709 ft 275 kts 357°
2026-04-26 06:26 38.77828 -26.98514 7721 ft 279 kts 332°
2026-04-26 06:26 38.79481 -26.99844 8697 ft 284 kts 322°
2026-04-26 06:26 38.80747 -27.01783 9612 ft 288 kts 295°
2026-04-26 06:27 38.81324 -27.04251 10545 ft 294 kts 280°
2026-04-26 06:27 38.81664 -27.06881 11294 ft 305 kts 278°
2026-04-26 06:27 38.81980 -27.09617 12072 ft 314 kts 277°
2026-04-26 06:27 38.82260 -27.12433 12870 ft 321 kts 277°
2026-04-26 06:28 38.82505 -27.15295 13754 ft 325 kts 277°
2026-04-26 06:28 38.82729 -27.18181 14674 ft 326 kts 276°
2026-04-26 06:28 38.82941 -27.21091 15573 ft 329 kts 276°
2026-04-26 06:28 38.83150 -27.24018 16438 ft 332 kts 276°
2026-04-26 06:29 38.83361 -27.26998 17288 ft 336 kts 277°
2026-04-26 06:29 38.83574 -27.30001 18026 ft 342 kts 277°
2026-04-26 06:29 38.83793 -27.33078 18675 ft 350 kts 277°
2026-04-26 06:29 38.84017 -27.36187 19310 ft 357 kts 277°
2026-04-26 06:30 38.84248 -27.39380 19978 ft 362 kts 277°
2026-04-26 06:30 38.84481 -27.42613 20670 ft 366 kts 277°
2026-04-26 06:30 38.84714 -27.45877 21371 ft 369 kts 277°
2026-04-26 06:30 38.84947 -27.49170 22030 ft 372 kts 277°
2026-04-26 06:31 38.85183 -27.52501 22654 ft 376 kts 277°
2026-04-26 06:31 38.85419 -27.55853 23266 ft 380 kts 277°
2026-04-26 06:31 38.85576 -27.58097 23687 ft 381 kts 277°
2026-04-26 06:31 38.85814 -27.61492 24298 ft 383 kts 276°
2026-04-26 06:32 38.86052 -27.64908 24933 ft 384 kts 276°
2026-04-26 06:32 38.86366 -27.69445 25592 ft 389 kts 277°
2026-04-26 06:32 38.86524 -27.71739 25813 ft 394 kts 277°
2026-04-26 06:32 38.86766 -27.75226 26125 ft 399 kts 277°
2026-04-26 06:33 38.87009 -27.78786 26442 ft 404 kts 277°
2026-04-26 06:33 38.87255 -27.82393 26767 ft 407 kts 277°
2026-04-26 06:33 38.87502 -27.86041 27084 ft 410 kts 276°
2026-04-26 06:33 38.87748 -27.89691 27412 ft 412 kts 277°
2026-04-26 06:34 38.87993 -27.93366 27731 ft 413 kts 277°
2026-04-26 06:34 38.88239 -27.97030 28057 ft 414 kts 277°
2026-04-26 06:34 38.88485 -28.00731 28376 ft 414 kts 277°
2026-04-26 06:34 38.88728 -28.04406 28774 ft 412 kts 276°
2026-04-26 06:35 38.88968 -28.08054 29299 ft 407 kts 276°
2026-04-26 06:35 38.89279 -28.12826 29938 ft 403 kts 276°
2026-04-26 06:35 38.89435 -28.15200 30219 ft 402 kts 276°
2026-04-26 06:35 38.89668 -28.18766 30657 ft 400 kts 276°
2026-04-26 06:36 38.89898 -28.22323 31115 ft 397 kts 276°
2026-04-26 06:36 38.90125 -28.25848 31563 ft 395 kts 277°
2026-04-26 06:36 38.90350 -28.29370 31979 ft 392 kts 277°
2026-04-26 06:36 38.90573 -28.32862 32236 ft 394 kts 277°
2026-04-26 06:37 38.90797 -28.36374 32198 ft 395 kts 277°
2026-04-26 06:37 38.91236 -28.43330 32158 ft 392 kts 277°
2026-04-26 06:38 38.91671 -28.50312 32155 ft 392 kts 277°
2026-04-26 06:38 38.92101 -28.57287 32155 ft 392 kts 277°
2026-04-26 06:39 38.92532 -28.64265 32156 ft 391 kts 276°
2026-04-26 06:39 38.92955 -28.71235 32156 ft 391 kts 276°
2026-04-26 06:40 38.93373 -28.78209 32155 ft 391 kts 276°
2026-04-26 06:40 38.93786 -28.85176 32156 ft 391 kts 276°
2026-04-26 06:41 38.94197 -28.92147 32155 ft 391 kts 276°
2026-04-26 06:41 38.94598 -28.99063 32156 ft 390 kts 276°
2026-04-26 06:42 38.94999 -29.06010 32156 ft 390 kts 276°
2026-04-26 06:42 38.95396 -29.12963 32155 ft 390 kts 276°
2026-04-26 06:43 38.95786 -29.19923 32155 ft 390 kts 276°
2026-04-26 06:43 38.96172 -29.26867 32155 ft 389 kts 276°
2026-04-26 06:44 38.96557 -29.33799 32156 ft 388 kts 276°
2026-04-26 06:44 38.96934 -29.40733 32157 ft 389 kts 276°
2026-04-26 06:45 38.97311 -29.47673 32146 ft 389 kts 275°
2026-04-26 06:45 38.97683 -29.54618 32145 ft 389 kts 275°
2026-04-26 06:46 38.98047 -29.61519 32134 ft 389 kts 275°
2026-04-26 06:46 38.98407 -29.68459 32132 ft 389 kts 275°
2026-04-26 06:47 38.98763 -29.75404 32133 ft 389 kts 275°
2026-04-26 06:47 38.99120 -29.82340 32143 ft 389 kts 275°
2026-04-26 06:48 38.99471 -29.89286 32125 ft 389 kts 275°
2026-04-26 06:48 38.99816 -29.96178 32131 ft 388 kts 275°
2026-04-26 06:49 39.00144 -30.03102 32122 ft 388 kts 274°
2026-04-26 06:49 39.00438 -30.10014 32129 ft 386 kts 274°
2026-04-26 06:50 39.00717 -30.16910 32127 ft 386 kts 274°
2026-04-26 06:50 39.00997 -30.23800 32118 ft 386 kts 274°
2026-04-26 06:51 39.01277 -30.30692 32124 ft 386 kts 274°
2026-04-26 06:51 39.01687 -30.41023 32120 ft 385 kts 274°
2026-04-26 06:52 39.01956 -30.47905 32116 ft 385 kts 274°
2026-04-26 06:52 39.02219 -30.54779 32102 ft 385 kts 274°
2026-04-26 06:53 39.02477 -30.61604 32115 ft 385 kts 273°
2026-04-26 06:53 39.02732 -30.68478 32107 ft 385 kts 273°
2026-04-26 06:54 39.02984 -30.75360 32106 ft 385 kts 273°
2026-04-26 06:54 39.03232 -30.82229 32103 ft 384 kts 273°
2026-04-26 06:55 39.03476 -30.89094 32108 ft 383 kts 273°
2026-04-26 06:55 39.03718 -30.95952 32103 ft 383 kts 273°
2026-04-26 06:56 39.03948 -31.02766 32099 ft 383 kts 273°
2026-04-26 06:56 39.04177 -31.09605 32100 ft 382 kts 273°
2026-04-26 06:57 39.04404 -31.16451 32099 ft 382 kts 273°
2026-04-26 06:57 39.04626 -31.23289 32100 ft 382 kts 272°
2026-04-26 06:58 39.04843 -31.30116 32100 ft 382 kts 272°
2026-04-26 06:58 39.05057 -31.36899 32101 ft 381 kts 272°
2026-04-26 06:59 39.05268 -31.43723 32102 ft 381 kts 272°
2026-04-26 06:59 39.05473 -31.50538 32102 ft 381 kts 272°
2026-04-26 07:00 39.05674 -31.57352 32101 ft 381 kts 272°
2026-04-26 07:00 39.05871 -31.64172 32102 ft 381 kts 272°
2026-04-26 07:01 39.06064 -31.70976 32101 ft 380 kts 272°
2026-04-26 07:01 39.06254 -31.77778 32100 ft 380 kts 272°
2026-04-26 07:02 39.06439 -31.84541 32101 ft 380 kts 272°
2026-04-26 07:02 39.06623 -31.91344 32116 ft 380 kts 272°
2026-04-26 07:03 39.06800 -31.98144 32102 ft 380 kts 272°
2026-04-26 07:03 39.06973 -32.04945 32104 ft 380 kts 271°
2026-04-26 07:04 39.07142 -32.11717 32115 ft 377 kts 271°
2026-04-26 07:04 39.07305 -32.18458 32114 ft 377 kts 271°
2026-04-26 07:05 39.07465 -32.25203 32102 ft 377 kts 271°
2026-04-26 07:05 39.07623 -32.31904 32102 ft 377 kts 271°
2026-04-26 07:06 39.07774 -32.38643 32116 ft 377 kts 271°
2026-04-26 07:06 39.07920 -32.45398 32122 ft 376 kts 271°
2026-04-26 07:07 39.08065 -32.52138 32115 ft 376 kts 271°
2026-04-26 07:07 39.08208 -32.58866 32117 ft 376 kts 271°
2026-04-26 07:08 39.08345 -32.65567 32104 ft 376 kts 271°
2026-04-26 07:08 39.08477 -32.72284 32111 ft 375 kts 270°
2026-04-26 07:09 39.08604 -32.79003 32107 ft 375 kts 270°
2026-04-26 07:09 39.08729 -32.85676 32108 ft 375 kts 270°
2026-04-26 07:11 39.09023 -33.02440 32104 ft 374 kts 270°
2026-04-26 07:11 39.09135 -33.09144 32104 ft 374 kts 270°
2026-04-26 07:12 39.09243 -33.15829 32108 ft 374 kts 270°
2026-04-26 07:12 39.09346 -33.22474 32101 ft 373 kts 270°
2026-04-26 07:13 39.09445 -33.29192 32116 ft 372 kts 270°
2026-04-26 07:13 39.09539 -33.35824 32117 ft 372 kts 270°
2026-04-26 07:14 39.09632 -33.42495 32101 ft 372 kts 270°
2026-04-26 07:14 39.09722 -33.49159 32105 ft 372 kts 269°
2026-04-26 07:15 39.09804 -33.55825 32109 ft 371 kts 269°
2026-04-26 07:15 39.09882 -33.62471 32108 ft 371 kts 269°
2026-04-26 07:16 39.09958 -33.69076 32104 ft 371 kts 269°
2026-04-26 07:16 39.10031 -33.75722 32112 ft 371 kts 269°
2026-04-26 07:17 39.10099 -33.82362 32105 ft 370 kts 269°
2026-04-26 07:17 39.10164 -33.88995 32108 ft 370 kts 269°
2026-04-26 07:18 39.10215 -33.94511 32113 ft 370 kts 269°
2026-04-26 07:18 39.10274 -34.01142 32101 ft 371 kts 269°
2026-04-26 07:19 39.10329 -34.07764 32101 ft 368 kts 269°
2026-04-26 07:19 39.10379 -34.14343 32101 ft 367 kts 269°
2026-04-26 07:20 39.10423 -34.20885 32099 ft 367 kts 269°
2026-04-26 07:20 39.10467 -34.27452 32101 ft 367 kts 268°
2026-04-26 07:21 39.10503 -34.34038 32100 ft 367 kts 268°
2026-04-26 07:21 39.10537 -34.40609 32100 ft 367 kts 269°
2026-04-26 07:22 39.10570 -34.47177 32100 ft 366 kts 268°
2026-04-26 07:22 39.10598 -34.53726 32100 ft 366 kts 268°
2026-04-26 07:23 39.10621 -34.60244 32100 ft 366 kts 268°
2026-04-26 07:23 39.10641 -34.66806 32101 ft 366 kts 268°
2026-04-26 07:24 39.10659 -34.73369 32099 ft 366 kts 268°
2026-04-26 07:24 39.10673 -34.79910 32099 ft 365 kts 268°
2026-04-26 07:25 39.10683 -34.86452 32099 ft 365 kts 268°
2026-04-26 07:25 39.10689 -34.92983 32100 ft 364 kts 268°
2026-04-26 07:26 39.10691 -34.99474 32101 ft 364 kts 268°
2026-04-26 07:26 39.10690 -35.06001 32101 ft 364 kts 268°
2026-04-26 07:27 39.10684 -35.12515 32100 ft 363 kts 268°
2026-04-26 07:27 39.10675 -35.19019 32100 ft 363 kts 268°
2026-04-26 07:28 39.10662 -35.25526 32100 ft 363 kts 268°
2026-04-26 07:28 39.10647 -35.32022 32100 ft 362 kts 268°
2026-04-26 07:29 39.10628 -35.38518 32100 ft 362 kts 268°
2026-04-26 07:29 39.10603 -35.45008 32100 ft 362 kts 268°
2026-04-26 07:30 39.10576 -35.51494 32091 ft 362 kts 268°
2026-04-26 07:30 39.10546 -35.57929 32092 ft 362 kts 268°
2026-04-26 07:31 39.10516 -35.64432 32092 ft 361 kts 268°
2026-04-26 07:31 39.10478 -35.70866 32092 ft 361 kts 268°
2026-04-26 07:32 39.10436 -35.77336 32091 ft 361 kts 268°
2026-04-26 07:32 39.10391 -35.83796 32091 ft 361 kts 268°
2026-04-26 07:33 39.10342 -35.90249 32092 ft 361 kts 268°
2026-04-26 07:33 39.10290 -35.96716 32091 ft 360 kts 268°
2026-04-26 07:34 39.10236 -36.03176 32091 ft 361 kts 267°
2026-04-26 07:34 39.10178 -36.09563 32091 ft 358 kts 267°
2026-04-26 07:35 39.10115 -36.15966 32091 ft 357 kts 267°
2026-04-26 07:35 39.10050 -36.22360 32091 ft 357 kts 267°
2026-04-26 07:36 39.09982 -36.28749 32091 ft 357 kts 267°
2026-04-26 07:36 39.09911 -36.35139 32091 ft 357 kts 267°
2026-04-26 07:37 39.09835 -36.41539 32082 ft 357 kts 267°
2026-04-26 07:37 39.09755 -36.47929 32081 ft 357 kts 267°
2026-04-26 07:38 39.09672 -36.54330 32082 ft 357 kts 266°
2026-04-26 07:38 39.09587 -36.60695 32082 ft 357 kts 266°
2026-04-26 07:39 39.09505 -36.66650 32085 ft 357 kts 266°
2026-04-26 07:39 39.09412 -36.73048 32082 ft 356 kts 266°
2026-04-26 07:40 39.09315 -36.79421 32083 ft 357 kts 266°
2026-04-26 07:40 39.09216 -36.85803 32083 ft 356 kts 266°
2026-04-26 07:41 39.09115 -36.92144 32082 ft 356 kts 266°
2026-04-26 07:41 39.09009 -36.98514 32082 ft 356 kts 266°
2026-04-26 07:42 39.08898 -37.04882 32082 ft 356 kts 266°
2026-04-26 07:42 39.08784 -37.11243 32080 ft 355 kts 266°
2026-04-26 07:43 39.08667 -37.17598 32073 ft 355 kts 266°
2026-04-26 07:43 39.08549 -37.23941 32073 ft 354 kts 266°
2026-04-26 07:44 39.08425 -37.30290 32073 ft 354 kts 266°
2026-04-26 07:44 39.08297 -37.36616 32073 ft 354 kts 265°
2026-04-26 07:45 39.08168 -37.42964 32072 ft 354 kts 265°
2026-04-26 07:45 39.08036 -37.49255 32073 ft 354 kts 265°
2026-04-26 07:46 39.07900 -37.55574 32073 ft 353 kts 265°
2026-04-26 07:46 39.07761 -37.61889 32073 ft 353 kts 265°
2026-04-26 07:47 39.07619 -37.68196 32073 ft 352 kts 265°
2026-04-26 07:47 39.07473 -37.74494 32067 ft 352 kts 265°
2026-04-26 07:48 39.07320 -37.80802 32063 ft 353 kts 265°
2026-04-26 07:48 39.07166 -37.87108 32064 ft 353 kts 265°
2026-04-26 07:49 39.07010 -37.93413 32064 ft 353 kts 265°
2026-04-26 07:49 39.06851 -37.99729 32063 ft 353 kts 265°
2026-04-26 07:50 39.06608 -38.09128 32063 ft 351 kts 264°
2026-04-26 07:50 39.06440 -38.15394 32063 ft 350 kts 264°
2026-04-26 07:51 39.06268 -38.21669 32064 ft 350 kts 264°
2026-04-26 07:51 39.06095 -38.27931 32063 ft 350 kts 264°
2026-04-26 07:52 39.05918 -38.34184 32055 ft 349 kts 264°
2026-04-26 07:52 39.05735 -38.40431 32055 ft 349 kts 264°
2026-04-26 07:53 39.05553 -38.46647 32055 ft 349 kts 264°
2026-04-26 07:53 39.05367 -38.52895 32056 ft 349 kts 264°
2026-04-26 07:54 39.05176 -38.59135 32056 ft 349 kts 264°
2026-04-26 07:54 39.04984 -38.65383 32054 ft 349 kts 264°
2026-04-26 07:55 39.04791 -38.71616 32052 ft 348 kts 264°
2026-04-26 07:55 39.04592 -38.77808 32055 ft 348 kts 264°
2026-04-26 07:56 39.04387 -38.84049 32045 ft 348 kts 263°
2026-04-26 07:56 39.04180 -38.90243 32045 ft 348 kts 263°
2026-04-26 07:57 39.03972 -38.96471 32045 ft 348 kts 263°
2026-04-26 07:57 39.03762 -39.02689 32045 ft 347 kts 263°
2026-04-26 07:58 39.03547 -39.08902 32045 ft 347 kts 263°
2026-04-26 07:58 39.03325 -39.15115 32045 ft 348 kts 263°
2026-04-26 07:59 39.03104 -39.21324 32045 ft 347 kts 263°
2026-04-26 07:59 39.02878 -39.27536 32039 ft 347 kts 263°
2026-04-26 08:00 39.02651 -39.33687 32036 ft 347 kts 263°
2026-04-26 08:00 39.02419 -39.39885 32036 ft 346 kts 263°
2026-04-26 08:01 39.02186 -39.46068 32036 ft 345 kts 263°
2026-04-26 08:01 39.01948 -39.52248 32036 ft 346 kts 263°
2026-04-26 08:02 39.01705 -39.58436 32030 ft 346 kts 263°
2026-04-26 08:02 39.01462 -39.64622 32026 ft 346 kts 262°
2026-04-26 08:03 39.01219 -39.70759 32027 ft 345 kts 262°
2026-04-26 08:03 39.00967 -39.76925 32027 ft 345 kts 262°
2026-04-26 08:04 39.00756 -39.82046 32026 ft 345 kts 262°
2026-04-26 08:04 39.00500 -39.88217 32018 ft 345 kts 262°
2026-04-26 08:05 39.00201 -39.95384 32018 ft 345 kts 262°
2026-04-26 08:05 38.99725 -40.01484 32018 ft 342 kts 257°
2026-04-26 08:06 38.99019 -40.06524 32017 ft 341 kts 256°
2026-04-26 08:06 38.98112 -40.12450 32017 ft 339 kts 255°
2026-04-26 08:07 38.97180 -40.18398 32017 ft 340 kts 255°
2026-04-26 08:07 38.96250 -40.24357 32017 ft 339 kts 255°
2026-04-26 08:08 38.95327 -40.30303 32008 ft 339 kts 255°
2026-04-26 08:08 38.94403 -40.36242 32008 ft 339 kts 255°
2026-04-26 08:09 38.93474 -40.42193 32008 ft 339 kts 255°
2026-04-26 08:09 38.92538 -40.48134 32008 ft 339 kts 255°
2026-04-26 08:10 38.91602 -40.54073 32007 ft 339 kts 255°
2026-04-26 08:10 38.90668 -40.59996 32008 ft 338 kts 255°
2026-04-26 08:11 38.89735 -40.65883 32003 ft 338 kts 255°
2026-04-26 08:11 38.88792 -40.71808 31999 ft 338 kts 255°
2026-04-26 08:12 38.87852 -40.77696 31999 ft 338 kts 255°
2026-04-26 08:12 38.86905 -40.83609 31998 ft 338 kts 255°
2026-04-26 08:13 38.85952 -40.89511 31999 ft 337 kts 255°
2026-04-26 08:13 38.85001 -40.95406 31999 ft 337 kts 255°
2026-04-26 08:14 38.84047 -41.01299 31999 ft 337 kts 255°
2026-04-26 08:14 38.83095 -41.07181 31992 ft 336 kts 255°
2026-04-26 08:15 38.82145 -41.13030 31992 ft 337 kts 255°
2026-04-26 08:15 38.81185 -41.18904 31999 ft 336 kts 254°
2026-04-26 08:16 38.80222 -41.24767 31999 ft 336 kts 254°
2026-04-26 08:16 38.79263 -41.30588 31997 ft 335 kts 254°
2026-04-26 08:17 38.78296 -41.36438 31990 ft 335 kts 254°
2026-04-26 08:17 38.77328 -41.42283 31991 ft 335 kts 254°
2026-04-26 08:18 38.76360 -41.48123 31987 ft 335 kts 254°
2026-04-26 08:18 38.75391 -41.53928 31989 ft 334 kts 254°
2026-04-26 08:19 38.74414 -41.59758 31980 ft 335 kts 254°
2026-04-26 08:19 38.73437 -41.65580 31983 ft 334 kts 254°
2026-04-26 08:20 38.72459 -41.71392 31979 ft 333 kts 254°
2026-04-26 08:20 38.71478 -41.77198 31984 ft 333 kts 254°
2026-04-26 08:21 38.70494 -41.83005 31978 ft 333 kts 254°
2026-04-26 08:21 38.69513 -41.88781 31980 ft 333 kts 254°
2026-04-26 08:22 38.68525 -41.94586 31981 ft 333 kts 254°
2026-04-26 08:22 38.67540 -42.00347 31971 ft 333 kts 254°
2026-04-26 08:23 38.66546 -42.06129 31972 ft 331 kts 253°
2026-04-26 08:23 38.65554 -42.11884 31969 ft 331 kts 253°
2026-04-26 08:24 38.64559 -42.17633 31969 ft 331 kts 253°
2026-04-26 08:24 38.63564 -42.23373 31972 ft 331 kts 253°
2026-04-26 08:25 38.62567 -42.29120 31970 ft 331 kts 253°
2026-04-26 08:25 38.61569 -42.34869 31972 ft 331 kts 253°
2026-04-26 08:26 38.60566 -42.40603 31960 ft 331 kts 253°
2026-04-26 08:26 38.59564 -42.46301 31962 ft 330 kts 253°
2026-04-26 08:27 38.58552 -42.52044 31962 ft 331 kts 253°
2026-04-26 08:27 38.57540 -42.57780 31963 ft 330 kts 253°
2026-04-26 08:28 38.56528 -42.63502 31961 ft 330 kts 253°
2026-04-26 08:28 38.55512 -42.69236 31963 ft 330 kts 253°
2026-04-26 08:29 38.54493 -42.74956 31962 ft 330 kts 253°
2026-04-26 08:29 38.53478 -42.80644 31954 ft 330 kts 253°
2026-04-26 08:30 38.52452 -42.86369 31954 ft 331 kts 253°
2026-04-26 08:30 38.51421 -42.92100 31951 ft 331 kts 253°
2026-04-26 08:31 38.50389 -42.97828 31952 ft 330 kts 253°
2026-04-26 08:31 38.49353 -43.03555 31952 ft 331 kts 253°
2026-04-26 08:32 38.48317 -43.09271 31952 ft 330 kts 253°
2026-04-26 08:32 38.47288 -43.14945 31952 ft 330 kts 253°
2026-04-26 08:33 38.46245 -43.20666 31952 ft 331 kts 253°
2026-04-26 08:33 38.45197 -43.26383 31944 ft 331 kts 252°
2026-04-26 08:34 38.44149 -43.32096 31944 ft 331 kts 252°
2026-04-26 08:34 38.43097 -43.37817 31946 ft 331 kts 253°
2026-04-26 08:35 38.42044 -43.43534 31943 ft 331 kts 252°
2026-04-26 08:35 38.40992 -43.49210 31944 ft 332 kts 252°
2026-04-26 08:36 38.39927 -43.54935 31913 ft 332 kts 252°
2026-04-26 08:36 38.38860 -43.60658 31894 ft 332 kts 253°
2026-04-26 08:37 38.37792 -43.66383 31898 ft 332 kts 253°
2026-04-26 08:37 38.36718 -43.72125 31895 ft 332 kts 253°
2026-04-26 08:38 38.35645 -43.77852 31898 ft 332 kts 253°
2026-04-26 08:38 38.34565 -43.83585 31897 ft 333 kts 253°
2026-04-26 08:39 38.33488 -43.89283 31898 ft 333 kts 253°
2026-04-26 08:39 38.32403 -43.95022 31897 ft 333 kts 253°
2026-04-26 08:40 38.31312 -44.00765 31898 ft 333 kts 253°
2026-04-26 08:40 38.30219 -44.06509 31888 ft 332 kts 253°
2026-04-26 08:41 38.29128 -44.12224 31887 ft 332 kts 252°
2026-04-26 08:41 38.28039 -44.17906 31889 ft 332 kts 252°
2026-04-26 08:42 38.26939 -44.23625 31888 ft 332 kts 252°
2026-04-26 08:42 38.25837 -44.29339 31887 ft 332 kts 252°
2026-04-26 08:43 38.24737 -44.35039 31888 ft 331 kts 252°
2026-04-26 08:43 38.23633 -44.40729 31889 ft 331 kts 252°
2026-04-26 08:44 38.22528 -44.46417 31888 ft 331 kts 252°
2026-04-26 08:44 38.21421 -44.52096 31880 ft 331 kts 252°
2026-04-26 08:45 38.20319 -44.57732 31881 ft 330 kts 251°
2026-04-26 08:45 38.19213 -44.63389 31896 ft 329 kts 251°
2026-04-26 08:46 38.18107 -44.69032 31895 ft 328 kts 251°
2026-04-26 08:46 38.17009 -44.74617 31894 ft 327 kts 251°
2026-04-26 08:47 38.15906 -44.80215 31892 ft 326 kts 251°
2026-04-26 08:47 38.14799 -44.85796 31887 ft 325 kts 250°
2026-04-26 08:48 38.13688 -44.91363 31888 ft 324 kts 250°
2026-04-26 08:48 38.12584 -44.96902 31886 ft 323 kts 250°
2026-04-26 08:49 38.11478 -45.02445 31887 ft 323 kts 250°
2026-04-26 08:49 38.10380 -45.07941 31878 ft 322 kts 250°
2026-04-26 08:50 38.09279 -45.13435 31878 ft 320 kts 249°
2026-04-26 08:50 38.08366 -45.17981 31873 ft 319 kts 249°
2026-04-26 08:51 38.06713 -45.26164 31875 ft 318 kts 249°
2026-04-26 08:52 38.05607 -45.31591 31870 ft 317 kts 248°
2026-04-26 08:52 38.04515 -45.37003 31869 ft 317 kts 249°
2026-04-26 08:53 38.03422 -45.42384 31871 ft 316 kts 248°
2026-04-26 08:53 38.02319 -45.47768 31869 ft 316 kts 248°
2026-04-26 08:54 38.01220 -45.53160 31868 ft 314 kts 248°
2026-04-26 08:54 38.00114 -45.58522 31867 ft 313 kts 248°
2026-04-26 08:55 37.99012 -45.63858 31866 ft 313 kts 248°
2026-04-26 08:55 37.97923 -45.69186 31871 ft 311 kts 248°
2026-04-26 08:56 37.96825 -45.74506 31868 ft 312 kts 248°
2026-04-26 08:56 37.95721 -45.79821 31867 ft 312 kts 248°
2026-04-26 08:57 37.94608 -45.85150 31863 ft 313 kts 248°
2026-04-26 08:57 37.93505 -45.90445 31867 ft 313 kts 248°
2026-04-26 08:58 37.92401 -45.95770 31864 ft 312 kts 248°
2026-04-26 08:58 37.91301 -46.01079 31854 ft 311 kts 248°
2026-04-26 08:59 37.90182 -46.06362 31861 ft 310 kts 247°
2026-04-26 08:59 37.89065 -46.11650 31860 ft 312 kts 248°
2026-04-26 09:00 37.87957 -46.16956 31862 ft 311 kts 248°
2026-04-26 09:00 37.86849 -46.22251 31863 ft 311 kts 248°
2026-04-26 09:01 37.85734 -46.27546 31855 ft 312 kts 248°
2026-04-26 09:01 37.84577 -46.32937 31866 ft 327 kts 249°
2026-04-26 09:02 37.83344 -46.38658 31854 ft 345 kts 249°
2026-04-26 09:02 37.82102 -46.44505 31866 ft 346 kts 250°
2026-04-26 09:03 37.80851 -46.50389 31849 ft 346 kts 250°
2026-04-26 09:03 37.79594 -46.56269 31851 ft 346 kts 250°
2026-04-26 09:04 37.78330 -46.62142 31848 ft 346 kts 250°
2026-04-26 09:04 37.77064 -46.68008 31846 ft 346 kts 251°
2026-04-26 09:05 37.75805 -46.73875 31850 ft 345 kts 251°
2026-04-26 09:05 37.74532 -46.79746 31853 ft 346 kts 251°
2026-04-26 09:06 37.73257 -46.85600 31846 ft 345 kts 251°
2026-04-26 09:06 37.71982 -46.91456 31847 ft 347 kts 252°
2026-04-26 09:07 37.70693 -46.97329 31847 ft 347 kts 252°
2026-04-26 09:07 37.69411 -47.03195 31849 ft 346 kts 252°
2026-04-26 09:08 37.68135 -47.09018 31851 ft 347 kts 252°
2026-04-26 09:08 37.66839 -47.14893 31851 ft 347 kts 253°
2026-04-26 09:09 37.65544 -47.20761 31848 ft 348 kts 253°
2026-04-26 09:09 37.64241 -47.26649 31856 ft 348 kts 254°
2026-04-26 09:10 37.62934 -47.32542 31854 ft 348 kts 253°
2026-04-26 09:10 37.61616 -47.38450 31849 ft 349 kts 254°
2026-04-26 09:11 37.60297 -47.44365 31857 ft 351 kts 254°
2026-04-26 09:11 37.58973 -47.50300 31858 ft 352 kts 254°
2026-04-26 09:12 37.57652 -47.56206 31838 ft 353 kts 254°
2026-04-26 09:12 37.56310 -47.62167 31855 ft 353 kts 254°
2026-04-26 09:13 37.54964 -47.68134 31839 ft 355 kts 255°
2026-04-26 09:13 37.53611 -47.74137 31839 ft 355 kts 255°
2026-04-26 09:14 37.52251 -47.80140 31837 ft 357 kts 255°
2026-04-26 09:14 37.50885 -47.86156 31846 ft 357 kts 255°
2026-04-26 09:15 37.49527 -47.92113 31836 ft 356 kts 255°
2026-04-26 09:15 37.48158 -47.98109 31852 ft 356 kts 255°
2026-04-26 09:16 37.46789 -48.04092 31855 ft 355 kts 255°
2026-04-26 09:16 37.45417 -48.10066 31846 ft 355 kts 255°
2026-04-26 09:17 37.44042 -48.16031 31845 ft 355 kts 255°
2026-04-26 09:17 37.42668 -48.21982 31848 ft 354 kts 255°
2026-04-26 09:18 37.41293 -48.27933 31845 ft 353 kts 255°
2026-04-26 09:18 37.39932 -48.33825 31858 ft 352 kts 255°
2026-04-26 09:19 37.38574 -48.39666 31849 ft 352 kts 255°
2026-04-26 09:19 37.37204 -48.45552 31859 ft 351 kts 255°
2026-04-26 09:20 37.35835 -48.51420 31849 ft 349 kts 255°
2026-04-26 09:20 37.34467 -48.57263 31856 ft 347 kts 255°
2026-04-26 09:21 37.33105 -48.63078 31853 ft 346 kts 255°
2026-04-26 09:21 37.31738 -48.68875 31848 ft 345 kts 255°
2026-04-26 09:22 37.30374 -48.74650 31853 ft 345 kts 255°
2026-04-26 09:22 37.29017 -48.80377 31847 ft 344 kts 255°
2026-04-26 09:23 37.27655 -48.86148 31844 ft 344 kts 255°
2026-04-26 09:23 37.26291 -48.91901 31848 ft 343 kts 255°
2026-04-26 09:24 37.24926 -48.97627 31851 ft 342 kts 255°
2026-04-26 09:24 37.23560 -49.03346 31855 ft 342 kts 255°
2026-04-26 09:25 37.22202 -49.09021 31856 ft 341 kts 255°
2026-04-26 09:25 37.20835 -49.14717 31857 ft 340 kts 255°
2026-04-26 09:26 37.19464 -49.20405 31860 ft 340 kts 255°
2026-04-26 09:26 37.18095 -49.26089 31861 ft 340 kts 255°
2026-04-26 09:27 37.16727 -49.31762 31856 ft 340 kts 255°
2026-04-26 09:27 37.15354 -49.37445 31858 ft 340 kts 255°
2026-04-26 09:28 37.13978 -49.43116 31859 ft 340 kts 255°